contact:dominique.lefevre@mio.osupytheas.fr, maurice.libes@osupytheas.fr, didier.mallarino@osupytheas.fr
Project:EMSO http://www.emso-fr.org/EMSO-France
Depth: 2436.0 m
Title:EMSO Ligure Ouest : Data MII capteur AQUADOPP
Date,Latitude,Longitude,X_East,Y_North,Z_Up,Amplitude_X,Amplitude_Y,Amplitude_Z,Batterie,SoundSpeed,Heading,Pitch,Roll,Pressure,TIS,Speed,Direction
, degrees North, degrees East, m.s-1, m.s-1,m.s-1, 1, 1, 1, Volt, m.s-1, degree, degree, degree, dbar, degree_C, m.s-1, degree
2021-03-05T00:04:03,42.805,6.029,-0.017,-0.035,-0.008,100.0,101.0,99.0,13.4,1505.2,326.9,-0.8,1.9,2470.465,13.28,0.038,205.9
2021-03-05T00:07:03,42.805,6.029,-0.012,-0.011,0.03,98.0,101.0,100.0,13.3,1505.2,326.8,-0.8,1.8,2470.441,13.28,0.016,227.5
2021-03-05T00:10:03,42.805,6.029,-0.019,-0.042,-0.024,102.0,99.0,100.0,13.3,1505.2,326.0,-0.8,1.9,2470.478,13.28,0.046,204.3
2021-03-05T00:13:03,42.805,6.029,0.001,-0.028,0.003,100.0,101.0,100.0,13.4,1505.2,325.5,-0.8,1.8,2470.465,13.28,0.028,178.0
2021-03-05T00:16:03,42.805,6.029,0.002,-0.025,0.017,100.0,101.0,100.0,13.3,1505.2,326.4,-0.7,1.8,2470.464,13.28,0.025,175.4
2021-03-05T00:19:03,42.805,6.029,0.003,-0.045,-0.009,99.0,100.0,100.0,13.3,1505.2,326.8,-0.8,1.8,2470.448,13.28,0.045,176.2
2021-03-05T00:22:03,42.805,6.029,-0.017,-0.017,0.022,101.0,103.0,99.0,13.4,1505.2,325.9,-0.7,1.8,2470.403,13.28,0.024,225.0
2021-03-05T00:25:03,42.805,6.029,0.012,-0.032,0.009,100.0,101.0,100.0,13.4,1505.2,326.9,-0.7,1.9,2470.418,13.28,0.034,159.4
2021-03-05T00:28:03,42.805,6.029,0.005,-0.028,0.02,102.0,101.0,101.0,13.4,1505.2,327.4,-0.8,1.8,2470.442,13.28,0.028,169.9
2021-03-05T00:31:03,42.805,6.029,-0.008,-0.032,-0.006,101.0,102.0,100.0,13.4,1505.2,326.0,-0.8,1.8,2470.395,13.28,0.032,194.0
2021-03-05T00:34:03,42.805,6.029,-0.011,-0.03,0.0,100.0,101.0,100.0,13.4,1505.2,325.0,-0.8,1.8,2470.453,13.28,0.031,200.1
2021-03-05T00:37:03,42.805,6.029,-0.007,-0.039,0.01,101.0,101.0,100.0,13.3,1505.2,328.2,-0.7,1.8,2470.428,13.28,0.039,190.2
2021-03-05T00:40:03,42.805,6.029,-0.012,-0.036,-0.007,101.0,101.0,100.0,13.4,1505.2,326.3,-0.7,1.8,2470.419,13.28,0.037,198.4
2021-03-05T00:43:03,42.805,6.029,-0.013,-0.022,0.022,100.0,102.0,100.0,13.4,1505.2,323.6,-0.7,1.8,2470.424,13.28,0.025,210.6
2021-03-05T00:46:03,42.805,6.029,-0.02,-0.016,0.005,101.0,102.0,99.0,13.4,1505.2,327.8,-0.7,1.8,2470.418,13.28,0.025,231.3
2021-03-05T00:49:03,42.805,6.029,0.009,-0.03,0.003,101.0,101.0,99.0,13.3,1505.2,325.1,-0.8,1.8,2470.402,13.28,0.031,163.3
2021-03-05T00:52:03,42.805,6.029,0.003,-0.029,-0.015,100.0,101.0,100.0,13.4,1505.2,327.0,-0.8,1.8,2470.433,13.28,0.029,174.1
2021-03-05T00:55:03,42.805,6.029,0.01,-0.043,0.006,100.0,102.0,100.0,13.4,1505.2,324.7,-0.7,1.8,2470.418,13.28,0.044,166.9
2021-03-05T00:58:03,42.805,6.029,-0.01,-0.051,-0.021,100.0,100.0,99.0,13.4,1505.2,328.1,-0.8,1.8,2470.431,13.28,0.051,191.1
2021-03-05T01:04:03,42.805,6.029,-0.004,-0.023,0.003,100.0,101.0,100.0,13.4,1505.2,326.0,-0.8,1.8,2470.472,13.28,0.023,189.9
2021-03-05T01:07:03,42.805,6.029,-0.007,-0.028,0.028,100.0,100.0,99.0,13.4,1505.2,323.9,-0.8,1.8,2470.397,13.28,0.028,194.0
2021-03-05T01:10:03,42.805,6.029,-0.002,-0.043,-0.011,100.0,101.0,101.0,13.4,1505.2,328.7,-0.7,1.8,2470.405,13.28,0.043,182.7
2021-03-05T01:13:03,42.805,6.029,0.005,-0.033,0.039,101.0,100.0,100.0,13.3,1505.2,324.8,-0.8,1.8,2470.426,13.28,0.033,171.4
2021-03-05T01:16:03,42.805,6.029,0.0,-0.053,-0.02,100.0,101.0,100.0,13.4,1505.2,323.2,-0.8,1.8,2470.426,13.28,0.053,180.0
2021-03-05T01:19:03,42.805,6.029,-0.003,-0.027,0.024,100.0,102.0,99.0,13.4,1505.2,328.4,-0.8,1.8,2470.403,13.28,0.027,186.3
2021-03-05T01:22:03,42.805,6.029,0.002,-0.039,0.006,100.0,101.0,100.0,13.4,1505.2,325.1,-0.8,1.8,2470.442,13.28,0.039,177.1
2021-03-05T01:25:03,42.805,6.029,0.003,-0.034,0.0,101.0,101.0,100.0,13.4,1505.2,325.9,-0.7,1.8,2470.439,13.28,0.034,175.0
2021-03-05T01:28:03,42.805,6.029,0.002,-0.018,0.012,98.0,102.0,102.0,13.4,1505.2,327.8,-0.8,1.8,2470.411,13.28,0.018,173.7
2021-03-05T01:31:03,42.805,6.029,0.01,-0.032,0.028,100.0,101.0,99.0,13.4,1505.2,326.5,-0.8,1.8,2470.423,13.28,0.033,162.6
2021-03-05T01:34:03,42.805,6.029,0.0,-0.052,0.001,100.0,100.0,100.0,13.3,1505.2,327.7,-0.8,1.8,2470.384,13.28,0.052,180.0
2021-03-05T01:37:03,42.805,6.029,-0.004,-0.028,0.011,105.0,101.0,99.0,13.4,1505.2,324.2,-0.8,1.8,2470.41,13.28,0.028,188.1
2021-03-05T01:40:03,42.805,6.029,0.0,-0.003,0.031,101.0,102.0,100.0,13.4,1505.2,325.4,-0.8,1.8,2470.425,13.28,0.003,180.0
2021-03-05T01:43:03,42.805,6.029,-0.025,-0.039,0.008,102.0,103.0,99.0,13.3,1505.2,328.3,-0.8,1.9,2470.386,13.28,0.046,212.7
2021-03-05T01:46:03,42.805,6.029,-0.02,-0.022,0.01,99.0,103.0,100.0,13.4,1505.2,324.6,-0.8,1.8,2470.402,13.28,0.029,222.3
2021-03-05T01:49:03,42.805,6.029,-0.01,-0.032,-0.013,101.0,101.0,100.0,13.3,1505.2,323.7,-0.7,1.8,2470.422,13.28,0.033,197.4
2021-03-05T01:52:03,42.805,6.029,0.004,-0.021,-0.03,100.0,101.0,100.0,13.3,1505.2,326.0,-0.7,1.8,2470.362,13.28,0.021,169.2
2021-03-05T01:55:03,42.805,6.029,-0.005,-0.044,0.018,101.0,101.0,100.0,13.3,1505.2,326.7,-0.8,1.8,2470.368,13.28,0.044,186.5
2021-03-05T01:58:03,42.805,6.029,0.005,-0.042,-0.014,102.0,100.0,100.0,13.4,1505.2,326.8,-0.7,1.8,2470.386,13.28,0.042,173.2
2021-03-05T02:04:03,42.805,6.029,0.018,-0.023,-0.009,101.0,101.0,100.0,13.4,1505.2,324.0,-0.8,1.8,2470.375,13.28,0.029,142.0
2021-03-05T02:07:03,42.805,6.029,0.006,-0.05,0.011,100.0,101.0,99.0,13.4,1505.2,325.4,-0.8,1.8,2470.421,13.28,0.05,173.2
2021-03-05T02:10:03,42.805,6.029,0.005,-0.051,-0.015,101.0,100.0,99.0,13.3,1505.2,323.6,-0.8,1.8,2470.424,13.28,0.051,174.4
2021-03-05T02:13:03,42.805,6.029,0.005,-0.017,-0.004,99.0,99.0,100.0,13.4,1505.2,323.1,-0.7,1.8,2470.41,13.28,0.017,163.6
2021-03-05T02:16:03,42.805,6.029,0.01,-0.043,0.009,100.0,101.0,100.0,13.4,1505.2,324.7,-0.7,1.8,2470.39,13.28,0.044,166.9
2021-03-05T02:19:03,42.805,6.029,0.004,-0.051,0.022,100.0,100.0,100.0,13.4,1505.2,326.7,-0.7,1.8,2470.364,13.28,0.051,175.5
2021-03-05T02:22:03,42.805,6.029,-0.01,-0.03,-0.004,101.0,102.0,99.0,13.4,1505.2,325.8,-0.8,1.8,2470.379,13.28,0.031,198.4
2021-03-05T02:25:03,42.805,6.029,-0.01,-0.028,0.003,99.0,102.0,100.0,13.4,1505.2,325.4,-0.8,1.8,2470.395,13.28,0.029,199.6
2021-03-05T02:28:03,42.805,6.029,-0.011,-0.046,-0.022,100.0,102.0,99.0,13.4,1505.2,327.5,-0.8,1.8,2470.42,13.28,0.047,193.4
2021-03-05T02:31:03,42.805,6.029,-0.019,-0.027,-0.012,101.0,101.0,100.0,13.3,1505.2,326.8,-0.8,1.8,2470.389,13.28,0.033,215.1
2021-03-05T02:34:03,42.805,6.029,-0.003,-0.033,0.002,100.0,101.0,100.0,13.4,1505.2,324.1,-0.7,1.8,2470.387,13.28,0.033,185.2
2021-03-05T02:37:03,42.805,6.029,-0.006,-0.011,0.022,99.0,101.0,100.0,13.3,1505.2,323.7,-0.7,1.9,2470.37,13.28,0.012,208.6
2021-03-05T02:40:03,42.805,6.029,0.0,-0.042,0.002,100.0,102.0,99.0,13.3,1505.2,325.5,-0.8,1.8,2470.306,13.28,0.042,180.0
2021-03-05T02:43:03,42.805,6.029,-0.006,-0.036,0.013,101.0,101.0,100.0,13.4,1505.2,326.8,-0.7,1.8,2470.403,13.28,0.036,189.5
2021-03-05T02:46:03,42.805,6.029,0.01,-0.025,0.019,99.0,102.0,102.0,13.4,1505.2,326.3,-0.7,1.8,2470.407,13.28,0.026,158.2
2021-03-05T02:49:03,42.805,6.029,-0.011,-0.031,0.009,100.0,100.0,101.0,13.4,1505.2,325.7,-0.8,1.8,2470.355,13.28,0.032,199.5
2021-03-05T02:52:03,42.805,6.029,0.002,-0.029,0.022,102.0,101.0,100.0,13.4,1505.2,324.2,-0.8,1.9,2470.368,13.28,0.029,176.1
2021-03-05T02:55:03,42.805,6.029,0.011,-0.013,-0.005,100.0,101.0,102.0,13.3,1505.2,323.4,-0.8,1.8,2470.339,13.28,0.017,139.8
2021-03-05T02:58:03,42.805,6.029,-0.011,-0.012,0.013,101.0,102.0,101.0,13.3,1505.2,327.4,-0.7,1.8,2470.395,13.28,0.016,222.5
2021-03-05T03:04:03,42.805,6.029,-0.019,-0.009,0.015,101.0,103.0,99.0,13.3,1505.2,328.3,-0.8,1.8,2470.437,13.28,0.021,244.7
2021-03-05T03:07:03,42.805,6.029,-0.011,-0.034,-0.006,102.0,101.0,101.0,13.4,1505.2,327.7,-0.8,1.8,2470.39,13.28,0.035,197.9
2021-03-05T03:10:03,42.805,6.029,0.0,-0.019,0.001,101.0,102.0,100.0,13.4,1505.2,327.3,-0.7,1.8,2470.39,13.28,0.019,180.0
2021-03-05T03:13:03,42.805,6.029,-0.011,-0.035,0.003,101.0,100.0,101.0,13.4,1505.2,328.1,-0.8,1.8,2470.373,13.28,0.036,197.4
2021-03-05T03:16:03,42.805,6.029,-0.002,-0.039,-0.004,101.0,102.0,100.0,13.4,1505.2,324.8,-0.8,1.8,2470.394,13.28,0.039,182.9
2021-03-05T03:19:03,42.805,6.029,-0.018,-0.042,-0.009,100.0,104.0,100.0,13.4,1505.2,326.4,-0.7,1.8,2470.36,13.28,0.045,203.2
2021-03-05T03:22:03,42.805,6.029,-0.002,-0.037,0.006,103.0,102.0,100.0,13.4,1505.2,328.3,-0.8,1.8,2470.336,13.28,0.037,183.1
2021-03-05T03:25:03,42.805,6.029,-0.014,-0.032,-0.012,101.0,101.0,100.0,13.4,1505.2,325.0,-0.8,1.8,2470.371,13.28,0.034,203.6
2021-03-05T03:28:03,42.805,6.029,0.0,-0.027,0.025,101.0,102.0,100.0,13.4,1505.2,326.6,-0.8,1.8,2470.353,13.28,0.026,180.0
2021-03-05T03:31:03,42.805,6.029,0.002,-0.043,0.01,100.0,99.0,101.0,13.3,1505.2,327.9,-0.7,1.9,2470.319,13.28,0.043,177.3
2021-03-05T03:34:03,42.805,6.029,-0.002,-0.039,0.001,100.0,100.0,99.0,13.4,1505.2,327.8,-0.8,1.8,2470.334,13.28,0.039,182.9
2021-03-05T03:37:03,42.805,6.029,-0.02,-0.017,-0.003,101.0,100.0,102.0,13.4,1505.2,328.2,-0.7,1.8,2470.369,13.28,0.026,229.6
2021-03-05T03:40:03,42.805,6.029,-0.002,-0.028,0.003,100.0,100.0,100.0,13.4,1505.2,328.1,-0.7,1.8,2470.373,13.28,0.028,184.1
2021-03-05T03:43:03,42.805,6.029,-0.01,-0.019,-0.004,101.0,100.0,100.0,13.4,1505.2,327.7,-0.8,1.8,2470.339,13.28,0.021,207.8
2021-03-05T03:46:03,42.805,6.029,-0.024,-0.024,-0.007,99.0,101.0,99.0,13.3,1505.2,323.8,-0.8,1.8,2470.386,13.28,0.033,225.0
2021-03-05T03:49:03,42.805,6.029,-0.006,-0.047,-0.014,102.0,99.0,100.0,13.3,1505.2,324.5,-0.7,1.8,2470.354,13.28,0.047,187.3
2021-03-05T03:52:03,42.805,6.029,-0.014,-0.047,-0.017,99.0,101.0,100.0,13.4,1505.2,325.9,-0.8,1.8,2470.345,13.28,0.049,196.6
2021-03-05T03:55:03,42.805,6.029,-0.013,-0.002,0.03,99.0,104.0,99.0,13.4,1505.2,327.4,-0.7,1.8,2470.358,13.28,0.013,261.3
2021-03-05T03:58:03,42.805,6.029,-0.005,-0.024,-0.023,99.0,102.0,100.0,13.4,1505.2,324.8,-0.7,1.8,2470.389,13.28,0.024,191.8
2021-03-05T04:04:03,42.805,6.029,-0.011,-0.022,0.013,99.0,102.0,100.0,13.3,1505.2,325.4,-0.8,1.8,2470.402,13.28,0.024,206.6
2021-03-05T04:07:03,42.805,6.029,-0.002,-0.017,0.04,100.0,101.0,100.0,13.4,1505.2,324.5,-0.8,1.8,2470.365,13.28,0.017,186.7
2021-03-05T04:10:03,42.805,6.029,-0.026,-0.032,-0.025,101.0,100.0,100.0,13.4,1505.2,327.8,-0.7,1.8,2470.373,13.28,0.041,219.1
2021-03-05T04:13:03,42.805,6.029,-0.01,-0.013,0.049,102.0,102.0,100.0,13.4,1505.2,327.8,-0.8,1.8,2470.338,13.28,0.016,217.6
2021-03-05T04:16:03,42.805,6.029,-0.007,-0.017,0.035,101.0,103.0,100.0,13.4,1505.2,326.1,-0.7,1.8,2470.329,13.28,0.018,202.4
2021-03-05T04:19:03,42.805,6.029,-0.011,-0.014,0.016,102.0,101.0,100.0,13.4,1505.2,323.3,-0.7,1.8,2470.387,13.28,0.017,218.2
2021-03-05T04:22:03,42.805,6.029,-0.016,-0.018,0.025,100.0,102.0,100.0,13.4,1505.2,327.9,-0.8,1.8,2470.336,13.28,0.024,221.6
2021-03-05T04:25:03,42.805,6.029,-0.011,-0.023,0.021,103.0,103.0,100.0,13.4,1505.2,326.6,-0.7,1.9,2470.332,13.28,0.025,205.6
2021-03-05T04:28:03,42.805,6.029,-0.005,-0.029,0.031,100.0,100.0,99.0,13.4,1505.2,326.4,-0.7,1.8,2470.37,13.28,0.029,189.8
2021-03-05T04:31:03,42.805,6.029,-0.005,-0.029,0.021,101.0,102.0,100.0,13.3,1505.2,327.6,-0.7,1.8,2470.359,13.28,0.029,189.8
2021-03-05T04:34:03,42.805,6.029,-0.023,-0.035,0.006,101.0,102.0,99.0,13.4,1505.2,325.1,-0.8,1.9,2470.338,13.28,0.041,213.3
2021-03-05T04:37:03,42.805,6.029,-0.012,-0.02,-0.011,99.0,101.0,100.0,13.4,1505.2,324.7,-0.7,1.8,2470.338,13.28,0.023,211.0
2021-03-05T04:40:03,42.805,6.029,-0.005,-0.035,0.008,105.0,102.0,99.0,13.4,1505.2,326.3,-0.8,1.8,2470.307,13.28,0.035,188.1
2021-03-05T04:43:03,42.805,6.029,-0.009,-0.048,-0.007,101.0,101.0,99.0,13.3,1505.2,327.6,-0.7,1.8,2470.326,13.28,0.048,190.6
2021-03-05T04:46:03,42.805,6.029,-0.015,-0.023,0.022,98.0,103.0,99.0,13.4,1505.2,323.3,-0.8,1.8,2470.355,13.28,0.027,213.1
2021-03-05T04:49:03,42.805,6.029,0.007,-0.045,-0.01,98.0,100.0,99.0,13.4,1505.2,323.8,-0.8,1.8,2470.359,13.28,0.045,171.2
2021-03-05T04:52:03,42.805,6.029,-0.011,-0.027,0.012,101.0,102.0,100.0,13.4,1505.2,326.0,-0.8,1.8,2470.331,13.28,0.029,202.2
2021-03-05T04:55:03,42.805,6.029,-0.017,-0.041,0.0,100.0,101.0,99.0,13.3,1505.2,324.3,-0.8,1.8,2470.331,13.28,0.044,202.5
2021-03-05T04:58:03,42.805,6.029,-0.031,0.0,0.013,99.0,101.0,100.0,13.4,1505.2,325.3,-0.7,1.8,2470.314,13.28,0.03,270.0
2021-03-05T05:04:03,42.805,6.029,-0.002,-0.042,-0.019,100.0,102.0,100.0,13.4,1505.2,325.3,-0.7,1.8,2470.321,13.28,0.042,182.7
2021-03-05T05:07:03,42.805,6.029,-0.006,-0.028,-0.01,100.0,100.0,100.0,13.4,1505.2,326.9,-0.8,1.8,2470.387,13.28,0.028,192.1
2021-03-05T05:10:03,42.805,6.029,-0.006,-0.039,0.003,101.0,100.0,100.0,13.4,1505.2,325.7,-0.7,1.8,2470.361,13.28,0.039,188.7
2021-03-05T05:13:03,42.805,6.029,-0.017,-0.016,-0.002,104.0,101.0,100.0,13.3,1505.2,326.0,-0.7,1.8,2470.345,13.28,0.023,226.7
2021-03-05T05:16:03,42.805,6.029,0.0,-0.015,0.037,101.0,100.0,99.0,13.4,1505.2,326.3,-0.8,1.8,2470.345,13.28,0.015,180.0
2021-03-05T05:19:03,42.805,6.029,-0.028,-0.025,0.002,100.0,104.0,99.0,13.3,1505.2,323.6,-0.7,1.9,2470.353,13.28,0.037,228.2
2021-03-05T05:22:03,42.805,6.029,0.009,-0.023,0.004,102.0,102.0,101.0,13.4,1505.2,327.5,-0.8,1.8,2470.333,13.28,0.024,158.6
2021-03-05T05:25:03,42.805,6.029,-0.019,-0.035,-0.035,102.0,101.0,100.0,13.4,1505.2,327.7,-0.8,1.8,2470.317,13.28,0.039,208.5
2021-03-05T05:28:03,42.805,6.029,-0.016,-0.033,0.028,100.0,100.0,99.0,13.3,1505.2,326.8,-0.7,1.9,2470.354,13.28,0.036,205.9
2021-03-05T05:31:03,42.805,6.029,0.001,-0.03,0.0,98.0,100.0,100.0,13.3,1505.2,324.0,-0.8,1.8,2470.344,13.28,0.03,178.1
2021-03-05T05:34:03,42.805,6.029,0.007,-0.036,0.009,101.0,99.0,100.0,13.3,1505.2,324.3,-0.8,1.8,2470.327,13.28,0.036,169.0
2021-03-05T05:37:03,42.805,6.029,0.02,-0.024,0.028,100.0,102.0,100.0,13.4,1505.2,326.3,-0.8,1.8,2470.387,13.28,0.031,140.2
2021-03-05T05:40:03,42.805,6.029,-0.014,-0.023,-0.004,101.0,100.0,100.0,13.4,1505.2,324.2,-0.8,1.8,2470.367,13.28,0.026,211.3
2021-03-05T05:43:03,42.805,6.029,0.015,-0.013,-0.001,99.0,100.0,100.0,13.3,1505.2,323.2,-0.7,1.8,2470.384,13.28,0.019,130.9
2021-03-05T05:46:03,42.805,6.029,-0.021,-0.022,0.026,99.0,103.0,100.0,13.4,1505.2,328.3,-0.7,1.9,2470.401,13.28,0.03,223.7
2021-03-05T05:49:03,42.805,6.029,-0.008,-0.047,-0.002,101.0,101.0,101.0,13.4,1505.2,324.4,-0.8,1.8,2470.346,13.28,0.047,189.7
2021-03-05T05:52:03,42.805,6.029,0.008,-0.044,-0.003,99.0,101.0,98.0,13.4,1505.2,326.3,-0.7,1.8,2470.365,13.28,0.044,169.7
2021-03-05T05:55:03,42.805,6.029,0.0,-0.031,0.026,98.0,100.0,100.0,13.4,1505.2,324.2,-0.8,1.8,2470.368,13.28,0.03,180.0
2021-03-05T05:58:03,42.805,6.029,-0.026,-0.016,0.017,101.0,101.0,100.0,13.3,1505.2,326.7,-0.7,1.8,2470.392,13.28,0.03,238.4
2021-03-05T06:04:03,42.805,6.029,-0.005,-0.013,0.034,99.0,101.0,99.0,13.4,1505.2,324.0,-0.8,1.8,2470.402,13.28,0.013,201.0
2021-03-05T06:07:03,42.805,6.029,0.012,-0.021,0.018,100.0,102.0,98.0,13.4,1505.2,325.0,-0.8,1.8,2470.384,13.28,0.024,150.3
2021-03-05T06:10:03,42.805,6.029,0.011,-0.036,0.031,101.0,101.0,99.0,13.4,1505.2,323.1,-0.8,1.8,2470.438,13.28,0.037,163.0
2021-03-05T06:13:03,42.805,6.029,-0.006,-0.02,0.012,99.0,100.0,100.0,13.3,1505.2,325.7,-0.8,1.8,2470.365,13.28,0.02,196.7
2021-03-05T06:16:03,42.805,6.029,-0.014,-0.012,0.055,100.0,101.0,99.0,13.4,1505.2,327.2,-0.8,1.9,2470.372,13.28,0.018,229.4
2021-03-05T06:19:03,42.805,6.029,-0.009,-0.029,0.004,99.0,100.0,100.0,13.4,1505.2,328.1,-0.7,1.8,2470.382,13.28,0.03,197.2
2021-03-05T06:22:03,42.805,6.029,-0.003,-0.034,0.005,100.0,100.0,100.0,13.4,1505.2,325.8,-0.7,1.8,2470.374,13.28,0.034,185.0
2021-03-05T06:25:03,42.805,6.029,0.016,-0.002,0.06,100.0,101.0,98.0,13.4,1505.2,323.6,-0.7,1.8,2470.395,13.28,0.016,97.1
2021-03-05T06:28:03,42.805,6.029,-0.025,-0.004,0.053,98.0,99.0,99.0,13.3,1505.2,324.0,-0.8,1.8,2470.342,13.28,0.025,260.9
2021-03-05T06:31:03,42.805,6.029,-0.008,-0.042,-0.018,99.0,100.0,99.0,13.4,1505.2,324.3,-0.8,1.8,2470.355,13.28,0.042,190.8
2021-03-05T06:34:03,42.805,6.029,-0.029,-0.023,-0.017,100.0,100.0,100.0,13.4,1505.2,324.9,-0.7,1.8,2470.389,13.28,0.037,231.6
2021-03-05T06:37:03,42.805,6.029,-0.013,-0.035,-0.022,99.0,100.0,100.0,13.4,1505.2,328.1,-0.7,1.8,2470.372,13.28,0.037,200.4
2021-03-05T06:40:03,42.805,6.029,-0.007,-0.045,-0.005,100.0,97.0,100.0,13.3,1505.2,324.0,-0.8,1.8,2470.302,13.29,0.045,188.8
2021-03-05T06:43:03,42.805,6.029,-0.023,-0.02,0.013,97.0,100.0,101.0,13.4,1505.2,326.9,-0.8,1.8,2470.373,13.29,0.03,229.0
2021-03-05T06:46:03,42.805,6.029,-0.026,-0.015,0.016,98.0,100.0,100.0,13.4,1505.2,328.1,-0.7,1.8,2470.373,13.29,0.03,240.0
2021-03-05T06:49:03,42.805,6.029,0.0,-0.016,0.006,100.0,102.0,99.0,13.4,1505.2,324.6,-0.7,1.8,2470.348,13.29,0.016,180.0
2021-03-05T06:52:03,42.805,6.029,-0.03,-0.019,0.012,101.0,100.0,99.0,13.4,1505.2,324.5,-0.7,1.8,2470.327,13.29,0.035,237.7
2021-03-05T06:55:03,42.805,6.029,-0.012,-0.036,-0.01,99.0,101.0,100.0,13.4,1505.2,326.4,-0.7,1.8,2470.338,13.29,0.037,198.4
2021-03-05T06:58:03,42.805,6.029,-0.025,-0.03,-0.024,99.0,102.0,99.0,13.4,1505.2,326.7,-0.8,1.9,2470.38,13.29,0.039,219.8
2021-03-05T07:04:03,42.805,6.029,-0.002,-0.039,0.0,100.0,99.0,99.0,13.4,1505.2,327.1,-0.8,1.8,2470.391,13.28,0.039,182.9
2021-03-05T07:07:03,42.805,6.029,-0.01,-0.034,-0.001,99.0,101.0,99.0,13.3,1505.2,327.9,-0.7,1.8,2470.377,13.28,0.035,196.4
2021-03-05T07:10:03,42.805,6.029,-0.013,-0.038,-0.007,100.0,100.0,99.0,13.3,1505.2,328.0,-0.8,1.8,2470.36,13.28,0.04,198.9
2021-03-05T07:13:03,42.805,6.029,-0.022,-0.017,-0.017,99.0,101.0,98.0,13.4,1505.2,324.2,-0.8,1.8,2470.394,13.29,0.027,232.3
2021-03-05T07:16:03,42.805,6.029,-0.011,-0.011,0.035,99.0,101.0,100.0,13.4,1505.2,326.9,-0.8,1.9,2470.365,13.29,0.015,225.0
2021-03-05T07:19:03,42.805,6.029,-0.014,-0.008,0.025,103.0,101.0,102.0,13.4,1505.2,323.8,-0.7,1.9,2470.332,13.29,0.016,240.3
2021-03-05T07:22:03,42.805,6.029,0.006,-0.025,0.032,102.0,99.0,101.0,13.4,1505.2,326.3,-0.8,1.8,2470.348,13.29,0.025,166.5
2021-03-05T07:25:03,42.805,6.029,-0.013,-0.018,0.017,99.0,101.0,99.0,13.4,1505.2,326.4,-0.8,1.8,2470.335,13.29,0.022,215.8
2021-03-05T07:28:03,42.805,6.029,-0.022,-0.025,0.018,105.0,99.0,99.0,13.4,1505.2,326.4,-0.8,1.8,2470.365,13.29,0.033,221.3
2021-03-05T07:31:03,42.805,6.029,-0.029,-0.02,-0.022,99.0,100.0,101.0,13.3,1505.2,327.7,-0.8,1.8,2470.374,13.29,0.035,235.4
2021-03-05T07:34:03,42.805,6.029,0.002,-0.022,0.015,100.0,101.0,99.0,13.4,1505.2,324.8,-0.8,1.8,2470.36,13.29,0.022,174.8
2021-03-05T07:37:03,42.805,6.029,-0.005,-0.027,-0.007,101.0,100.0,98.0,13.4,1505.2,326.9,-0.7,1.8,2470.391,13.29,0.027,190.5
2021-03-05T07:40:03,42.805,6.029,-0.025,-0.035,-0.024,103.0,96.0,99.0,13.3,1505.2,323.5,-0.7,1.8,2470.352,13.29,0.043,215.5
2021-03-05T07:43:03,42.805,6.029,-0.018,-0.021,0.013,99.0,100.0,100.0,13.4,1505.2,327.5,-0.8,1.8,2470.361,13.29,0.027,220.6
2021-03-05T07:46:03,42.805,6.029,-0.01,-0.012,-0.004,101.0,102.0,99.0,13.3,1505.2,327.1,-0.7,1.8,2470.395,13.29,0.015,219.8
2021-03-05T07:49:03,42.805,6.029,-0.022,-0.014,0.002,98.0,103.0,101.0,13.4,1505.2,327.2,-0.8,1.8,2470.328,13.29,0.026,237.5
2021-03-05T07:52:03,42.805,6.029,-0.005,-0.018,0.017,100.0,99.0,100.0,13.4,1505.2,324.7,-0.7,1.8,2470.362,13.29,0.018,195.5
2021-03-05T07:55:03,42.805,6.029,-0.015,-0.032,-0.005,98.0,101.0,99.0,13.3,1505.2,324.3,-0.7,1.8,2470.385,13.29,0.035,205.1
2021-03-05T07:58:03,42.805,6.029,-0.017,-0.017,0.0,101.0,101.0,100.0,13.4,1505.2,328.2,-0.7,1.8,2470.385,13.29,0.024,225.0
2021-03-05T08:04:03,42.805,6.029,-0.044,-0.02,-0.022,99.0,100.0,102.0,13.3,1505.2,327.0,-0.8,1.8,2470.394,13.29,0.048,245.6
2021-03-05T08:07:03,42.805,6.029,-0.014,-0.002,0.0,100.0,103.0,100.0,13.4,1505.2,327.1,-0.8,1.9,2470.388,13.29,0.014,261.9
2021-03-05T08:10:03,42.805,6.029,-0.012,-0.026,0.017,100.0,100.0,100.0,13.4,1505.2,325.7,-0.7,1.8,2470.371,13.29,0.028,204.8
2021-03-05T08:13:03,42.805,6.029,-0.015,-0.023,-0.006,101.0,100.0,99.0,13.3,1505.2,324.8,-0.8,1.9,2470.366,13.29,0.027,213.1
2021-03-05T08:16:03,42.805,6.029,-0.02,-0.003,0.026,100.0,103.0,100.0,13.3,1505.2,327.3,-0.8,1.8,2470.394,13.29,0.02,261.5
2021-03-05T08:19:03,42.805,6.029,-0.019,-0.017,-0.011,101.0,102.0,100.0,13.4,1505.2,326.6,-0.8,1.8,2470.376,13.29,0.025,228.2
2021-03-05T08:22:03,42.805,6.029,-0.034,-0.012,0.011,102.0,98.0,100.0,13.4,1505.2,326.8,-0.8,1.8,2470.367,13.29,0.036,250.6
2021-03-05T08:25:03,42.805,6.029,0.007,-0.035,0.007,100.0,99.0,99.0,13.4,1505.2,325.9,-0.8,1.8,2470.401,13.29,0.035,168.7
2021-03-05T08:28:03,42.805,6.029,-0.018,-0.007,0.031,100.0,100.0,100.0,13.4,1505.2,326.4,-0.7,1.8,2470.411,13.29,0.019,248.8
2021-03-05T08:31:03,42.805,6.029,-0.02,-0.002,0.025,100.0,99.0,100.0,13.4,1505.2,326.7,-0.7,1.8,2470.382,13.29,0.02,264.3
2021-03-05T08:34:03,42.805,6.029,-0.013,-0.029,-0.007,101.0,100.0,100.0,13.4,1505.2,326.9,-0.7,1.8,2470.39,13.29,0.031,204.1
2021-03-05T08:37:03,42.805,6.029,-0.018,-0.017,0.007,100.0,100.0,100.0,13.4,1505.2,328.5,-0.8,1.8,2470.359,13.29,0.024,226.6
2021-03-05T08:40:03,42.805,6.029,-0.011,-0.029,0.018,99.0,104.0,100.0,13.4,1505.2,327.4,-0.8,1.8,2470.416,13.29,0.031,200.8
2021-03-05T08:43:03,42.805,6.029,-0.009,-0.037,-0.012,101.0,102.0,99.0,13.4,1505.2,326.1,-0.7,1.8,2470.427,13.29,0.038,193.7
2021-03-05T08:46:03,42.805,6.029,-0.022,-0.024,0.005,100.0,101.0,99.0,13.4,1505.2,324.4,-0.8,1.8,2470.424,13.29,0.032,222.5
2021-03-05T08:49:03,42.805,6.029,-0.03,-0.008,0.024,100.0,101.0,99.0,13.4,1505.2,325.3,-0.8,1.8,2470.406,13.29,0.031,255.1
2021-03-05T08:52:03,42.805,6.029,-0.015,-0.002,0.035,100.0,101.0,100.0,13.4,1505.2,326.1,-0.8,1.8,2470.397,13.29,0.015,262.4
2021-03-05T08:55:03,42.805,6.029,-0.012,-0.023,0.009,101.0,101.0,99.0,13.3,1505.2,324.0,-0.7,1.8,2470.426,13.29,0.025,207.6
2021-03-05T08:58:03,42.805,6.029,-0.01,-0.038,-0.003,101.0,101.0,99.0,13.3,1505.2,324.3,-0.7,1.8,2470.384,13.29,0.039,194.7
2021-03-05T09:04:03,42.805,6.029,0.009,-0.011,0.01,100.0,99.0,100.0,13.4,1505.2,326.1,-0.7,1.8,2470.471,13.28,0.014,140.7
2021-03-05T09:07:03,42.805,6.029,0.012,-0.033,0.059,100.0,100.0,100.0,13.3,1505.2,323.2,-0.8,1.8,2470.462,13.28,0.035,160.0
2021-03-05T09:10:03,42.805,6.029,-0.019,-0.021,0.013,101.0,101.0,100.0,13.4,1505.2,327.6,-0.8,1.8,2470.419,13.28,0.028,222.1
2021-03-05T09:13:03,42.805,6.029,-0.012,-0.013,0.005,101.0,101.0,101.0,13.3,1505.2,324.5,-0.8,1.8,2470.436,13.28,0.017,222.7
2021-03-05T09:16:03,42.805,6.029,-0.007,-0.006,0.029,102.0,101.0,101.0,13.3,1505.2,327.0,-0.8,1.8,2470.465,13.28,0.009,229.4
2021-03-05T09:19:03,42.805,6.029,0.018,-0.017,0.048,100.0,101.0,99.0,13.4,1505.2,323.5,-0.7,1.8,2470.412,13.28,0.024,133.4
2021-03-05T09:22:03,42.805,6.029,0.002,-0.017,0.028,100.0,100.0,101.0,13.4,1505.2,325.1,-0.8,1.8,2470.428,13.28,0.017,173.3
2021-03-05T09:25:03,42.805,6.029,-0.017,-0.01,0.022,100.0,100.0,99.0,13.3,1505.2,323.0,-0.8,1.8,2470.433,13.28,0.019,239.5
2021-03-05T09:28:03,42.805,6.029,-0.012,0.001,0.029,100.0,100.0,100.0,13.4,1505.2,326.4,-0.8,1.8,2470.421,13.28,0.012,274.8
2021-03-05T09:31:03,42.805,6.029,0.021,-0.029,0.045,101.0,100.0,100.0,13.4,1505.2,325.3,-0.7,1.8,2470.435,13.28,0.035,144.1
2021-03-05T09:34:03,42.805,6.029,-0.014,0.001,0.035,99.0,99.0,100.0,13.4,1505.2,328.3,-0.8,1.8,2470.416,13.28,0.014,274.1
2021-03-05T09:37:03,42.805,6.029,0.02,-0.026,0.028,99.0,100.0,99.0,13.4,1505.2,328.2,-0.7,1.8,2470.44,13.28,0.032,142.4
2021-03-05T09:40:03,42.805,6.029,-0.016,-0.011,0.016,99.0,101.0,100.0,13.4,1505.2,325.6,-0.7,1.8,2470.438,13.28,0.019,235.5
2021-03-05T09:43:03,42.805,6.029,-0.011,-0.051,-0.021,100.0,101.0,99.0,13.4,1505.2,323.5,-0.8,1.8,2470.464,13.28,0.052,192.2
2021-03-05T09:46:03,42.805,6.029,-0.007,-0.015,0.009,101.0,100.0,101.0,13.3,1505.2,328.2,-0.7,1.9,2470.415,13.28,0.016,205.0
2021-03-05T09:49:03,42.805,6.029,-0.008,-0.012,0.031,99.0,102.0,99.0,13.4,1505.2,327.2,-0.7,1.8,2470.449,13.28,0.014,213.7
2021-03-05T09:52:03,42.805,6.029,-0.001,-0.037,-0.016,100.0,102.0,99.0,13.4,1505.2,326.0,-0.7,1.9,2470.439,13.28,0.037,181.5
2021-03-05T09:55:03,42.805,6.029,-0.008,-0.023,-0.002,100.0,101.0,100.0,13.4,1505.2,325.2,-0.7,1.8,2470.439,13.28,0.024,199.2